Simultaneous Nadir Overpasses (SNOs) Predictions

Prediction of SNOs between AQUA and NPP Satellite Orbit:

Table of predicted SNOs for the next 14.0 days since TLE Epoch: 10/27/2017
Index Date (AQUA) Time (AQUA) Lat,Lon (AQUA) SZA (AQUA ) Date (NPP) Time (NPP) Lat,Lon (NPP) SZA (NPP ) Distance(km) Time Diff (sec)
1 10/28/2017 21:48:35 -75.82, -88.66 70.42 10/28/2017 21:48:25 -75.82, -88.67 70.40 0.42 10
2 10/28/2017 22:37:35 77.03, 83.03 108.29 10/28/2017 22:38:42 77.04, 83.14 108.20 2.97 67
3 10/31/2017 13:15:54 74.88,-143.02 111.40 10/31/2017 13:14:53 74.88,-143.06 111.47 1.42 61
4 10/31/2017 14:04:54 -76.27, 28.62 70.05 10/31/2017 14:05:09 -76.28, 28.65 70.07 0.95 15
5 11/03/2017 05:32:10 75.54, -25.37 111.55 11/03/2017 05:31:34 75.54, -25.35 111.57 0.62 36
6 11/03/2017 06:21:20 -76.42, 144.98 69.39 11/03/2017 06:22:01 -76.41, 144.89 69.40 2.64 41
7 11/05/2017 21:48:35 75.72, 91.05 112.15 11/05/2017 21:48:25 75.71, 90.97 112.18 2.21 10
8 11/05/2017 22:37:38 -76.93, -97.34 69.15 11/05/2017 22:38:44 -76.93, -97.32 69.21 0.61 66
9 11/08/2017 13:15:54 -74.96, 37.18 66.31 11/08/2017 13:14:52 -74.96, 37.14 66.23 1.52 62




NCC Satellite Simultaneous Nadir Overpasses (SNOs) Prediction Service
